Погода в Бреконе

Великобритания     51˚56′52″N   3˚23′20″W
темп.,
°C
ветер,
м/с
пор.,
м/с
влажн.,
%
обл.,
%
осадки,
мм/ч
давл.,
гПа
погр.,
м
16 января, сб
сб1600:00+2˚ю51393100 0.0 1023672
03:00+4˚ю71695100 3.8 1018687
06:00+5˚ю61596100 6.6 1014584
09:00+6˚зсз61293100 2.4 1015678
12:00+6˚зсз61190100 2.4 1017799
15:00+6˚сз6108697 0.1 1018810
18:00+2˚зсз4129382 0.2 1020439
21:00+2˚з4119422 0.0 1022367
17 января, вс
вс1700:00+2˚з5139347 0.0 1022550
03:00+2˚зсз5139167 0.0 1023536
06:00+1˚зсз4119380 0.0 1024333
09:00+2˚з4993100 0.0 1025273
12:00+4˚з5785100 0.0 1026513
15:00+4˚з4788100 0.0 1025557
18:00+2˚зюз3794100 0.0 1026223
21:00+1˚зюз2594100 0.0 1025133
18 января, пн
пн1800:00юз369568 0.0 1025130
03:00+2˚юз399443 0.1 1023335
06:00+1˚юз389468 0.1 1022200
09:00+1˚ююз2392100 0.0 102181
12:00+4˚ю3688100 0.0 1019346
15:00+3˚ююв2497100 0.8 1015164
18:00+5˚ююв2499100 1.7 1012114
21:00+6˚ююв2799100 1.8 1008256
19 января, вт
вт1900:00+9˚зюз122097100 8.4 1005981
03:00+9˚юз112096100 0.9 10041139
06:00+9˚юз101894100 1.3 10021109
09:00+8˚юз111894100 1.6 1000989
12:00+8˚ююз81795100 5.3 9961081
15:00+8˚ююз71796100 6.6 9911162
18:00+9˚юз111893100 9.6 9881122
21:00+9˚юз132094100 4.4 9851244
20 января, ср
ср2000:00+9˚юз142193100 7.8 9831206
03:00+8˚зюз10179492 0.9 9841064
06:00+5˚з8129396 1.6 986772
09:00+2˚з51090100 0.1 987638
12:00+4˚зюз6980100 0.1 987782
15:00+5˚зюз7108366 0.1 986919
18:00+2˚з6129244 0.1 988528
21:00+1˚з614920 0.0 989598